Regional Weather Roundup
Issued by NWS

Home | Current Version | Previous Version | Text Only | Print | Product List | Glossary Off
Versions: 1 2 3 4 5 6 7 8 9 10 11 12 13 14 15 16 17 18 19 20 21 22 23 24 25 26 27 28 29 30 31 32 33 34 35 36 37 38 39 40 41 42 43 44 45 46 47 48 49 50

000
ASUS43 KFSD 181702
RWRSD

WEATHER ROUNDUP FOR SOUTH DAKOTA
NATIONAL WEATHER SERVICE SIOUX FALLS SD
1100 AM CST WED JAN 18 2017

NOTE: "FAIR" INDICATES FEW OR NO CLOUDS BELOW 12,000 FEET WITH NO
SIGNIFICANT WEATHER AND/OR OBSTRUCTIONS TO VISIBILITY.


SDZ001>005-009-010-012>017-181800-
NORTHWEST AND NORTH CENTRAL SOUTH DAKOTA

CITY           SKY/WX    TMP DP  RH WIND       PRES   REMARKS
BUFFALO          N/A     34  20  56 CALM      29.68S
FAITH            N/A     30  22  72 S12       29.75F WCI  20
MOBRIDGE       CLOUDY    22  14  71 SE10      29.77R WCI  11
$$

SDZ012>016-024>037-041>051-057-063-072>074-181800-
SOUTHWEST AND SOUTH CENTRAL SOUTH DAKOTA

CITY           SKY/WX    TMP DP  RH WIND       PRES   REMARKS
RAPID CTY ARPT CLOUDY    33  23  66 N5        29.74F WCI  29
PIERRE         CLOUDY    22  16  78 S3        29.80F
CUSTER         CLOUDY    51  16  24 W7        29.82F
ELLSWORTH AFB  CLOUDY    43  27  52 NE5       29.73F
PHILIP         CLOUDY    29  19  66 CALM      29.79S
PINE RIDGE     CLOUDY    34  20  56 SW10      29.83S WCI  26
SPEARFISH      FAIR      45  28  53 CALM      29.75F
WINNER         FAIR      41  22  46 S7        29.83R
$$

SDZ004>011-016>023-039-040-181800-
NORTHEAST SOUTH DAKOTA

CITY           SKY/WX    TMP DP  RH WIND       PRES   REMARKS
ABERDEEN       CLOUDY    23  15  71 S9        29.82S WCI  13
WATERTOWN      CLOUDY    26  21  81 S7        29.82F WCI  18
BROOKINGS      CLOUDY    30  26  85 SE8       29.85F WCI  22
SISSETON         N/A     39  25  57 SW6       29.78S
$$

SDZ017-020-022-023-036>040-048>070-181800-
SOUTHEAST SOUTH DAKOTA

CITY           SKY/WX    TMP DP  RH WIND       PRES   REMARKS
SIOUX FALLS    CLOUDY    37  31  78 S6        29.89S
HURON          CLOUDY    27  21  78 S8        29.84F WCI  19
CHAMBERLAIN    CLOUDY    34  25  71 CALM      29.84S
MITCHELL       CLOUDY    33  27  78 S7        29.86F WCI  27
YANKTON        SUNNY     37  34  87 NE3       29.90R
$$

ABBREVIATIONS USED IN REMARKS
   TC - TEMPERATURE IN CELSIUS
  WCI - WIND CHILL INDEX
   HX - HEAT INDEX
  VSB - VISIBILITY




USA.gov is the U.S. government's official web portal to all federal, state and local government web resources and services.